Showing default

ASTRO H, 41337

Orbit data source: Space-Track

ASTRO H, 41337 is a Japanese payload satellite in LEO that was launched on Wed, 17 Feb 2016 UTC via an H-IIA 202 launch vehicle from the Tanegashima Space Center (TNSTA). Payload-class satellites include a variety of spacecraft equipped with specific instruments for various scientific and technological missions. These include communications satellites like Starlink; space stations such as the ISS; scientific satellites like the Hubble; Earth observation satellites from companies like Planet Labs, Umbra, and HawkEye 360; GPS; miniature CubeSats for education and research; and military/defense satellites.

Loading next visibility...
Identifier
41337, 2016-012A
Orbit
LEO
Country
Flag of JPJP / JPN
Related business
Manufacturer
TSUK/NECTF
Mission
Non-operational Civil Astronomy
Bus & Motor
ASTRO-H, Unknown motor
Mass
2,700 kg wet, 2,700 kg dry
Launch date (UTC)
2016-02-17 (10 years ago)
Launch vehicle
H-IIA 202
Launch site
Tanegashima Space Center (TNSTA)
Object type
Payload
Rocket body
Debris
Shape & HBR
Oct Cyl + 2 Pan + 1 Truss, 7.0 m
Radar Cross Section
16.262 m², Large (>1 m²)

Expand to show TLE details & history
Last TLE update: 2 days ago

TLE from 2 days ago
0 ASTRO H
1 41337U 16012A   25260.49825534  .00002760  00000-0  16661-3 0  9991
2 41337  31.0008  33.0008 0010086  33.1649 326.9620 15.08533612526046
Epoch: 2025-09-17T11:57Z
TLE epoch observation values (Epoch: 2025-09-17T11:57:29.261Z)
Latitude
0.00001°
Longitude
-143.04444°
Altitude
533.344 km
Speed
7.602 km/s
True Right ascension
02h 12m 00s
True Declination
0° 00' 00"
Sunlit
Object was in full shadow at epoch
Visualization orbit readout
Latitude
Unknown
Longitude
Unknown
Altitude
Unknown
Speed
Unknown
Apparent Right ascension
Unknown
Apparent Declination
Unknown
Sunlit
N/A
Visualization observer readout
Local Sidereal Time
18:04:16
Azimuth
Unknown
Elevation
Unknown
Doppler factor
Unknown
Orbital elements
Apogee altitude
551.501 km
Perigee altitude
537.536 km
Semi-major axis
6,922.655 km
Eccentricity
0.00101
Inclination
31.0008°
RAAN
33.0008°
Arg. of periapsis
33.1649°
True anomaly
326.89892°
Mean anomaly
326.962°
Eccentric anomaly
326.93047°
Mean motion
3.7682 °/min
Orbital period
95.54 mins
BSTAR
0.00016661
Loading maneuver chart data...
Computing Atmospheric mass density...
Loading historical data...
Loading historical data...
Loading historical data...
Loading historical data...
Loading historical data...
Loading historical data...
Loading historical data...

Documentation

Showing up to 5 results
|